Location: Forcarei
(42.5879°N, 8.3520°W)
Time: 15:35:22
(UTC+02:00)

Hubble Space Telescope - Visible Passes

Search period start: 21 September 2018 00:00
Search period end: 01 October 2018 00:00
Orbit: 537 x 541 km, 28.5° (Epoch: 20 September)

Date Brightness Start Highest point End Pass type
(mag) Time Alt. Az. Time Alt. Az. Time Alt. Az.
21 Sep 3.1 21:18:54 10° SSW 21:20:09 11° S 21:21:24 10° SSE visible
22 Sep 3.2 21:08:19 10° SSW 21:09:37 11° S 21:10:54 10° SSE visible
23 Sep 3.2 20:57:52 10° SSW 20:59:05 11° S 21:00:16 10° SSE visible
